{"data":{"norad_id":64873,"epoch":"2026-09-21T18:42:15.806304Z","epoch_age_seconds":60673,"freshness":"FRESH","line1":"1 64873U 25154E   26264.77934961  .00000960  00000+0  96021-4 0  9997","line2":"2 64873  97.6592 326.0471 0003455 359.5569   0.5648 14.93698737 63414","mean_motion":14.93698737,"eccentricity":0.0003455,"inclination_deg":97.6592,"raan_deg":326.0471,"arg_perigee_deg":359.5569,"mean_anomaly_deg":0.5648,"bstar":9.6021e-5,"rev_number":6341,"period_min":96.404982097806,"perigee_km":584.00842874438,"apogee_km":588.8209339562,"semimajor_km":6964.5516813503,"source":"CELESTRAK","updated_at":"2026-09-22T09:00:30.012145Z"}}